FW5965 Weather Reports


time (UTC)temp
F
wind
direction
speed
knots
gust
knots
rain 1hr
in
rain 24hr
in
rain mn
in
humidity
%
barometer
mb
20260505064459 38 101 0.0 0.0 0.00 0.15 0.00 94 1013.7
20260505062959 38 101 0.0 0.9 0.00 0.15 0.00 94 1013.7
20260505061458 38 106 0.0 1.7 0.00 0.15 0.00 94 1013.7
20260505060006 38 106 0.0 0.0 0.00 0.15 0.00 93 1013.7
20260505054459 38 106 0.0 0.0 0.00 0.15 0.15 93 1013.7
20260505051458 39 106 0.0 0.0 0.00 0.15 0.15 93 1013.8
20260505041500 39 106 0.0 0.0 0.10 0.15 0.15 92 1014.4
20260505033000 40 123 0.0 0.0 0.09 0.10 0.10 88 1014.5
20260505031501 42 16 0.0 0.9 0.03 0.04 0.04 83 1014.7
20260505030000 43 144 0.0 0.0 0.00 0.01 0.01 82 1014.3
20260505024501 43 144 0.0 0.0 0.00 0.01 0.01 83 1013.7
20260505023002 43 144 0.0 0.0 0.00 0.01 0.01 83 1013.5
20260505021501 44 144 0.0 0.0 0.00 0.01 0.01 80 1013.2
20260505020004 44 144 0.0 0.0 0.00 0.01 0.01 80 1012.9
20260505014458 44 144 0.0 0.0 0.00 0.01 0.01 78 1013.0
20260505011459 45 144 0.0 0.0 0.00 0.01 0.01 77 1013.0
20260505003001 45 144 0.0 0.0 0.01 0.01 0.01 79 1013.1
20260505000005 47 180 0.0 0.0 0.00 0.00 0.00 68 1013.7
20260504234500 47 249 0.0 0.0 0.00 0.00 0.00 67 1013.4
20260504232959 47 286 0.0 0.0 0.00 0.00 0.00 67 1013.0
20260504231502 49 9 0.0 0.0 0.00 0.00 0.00 61 1012.6
20260504224502 51 58 0.0 0.0 0.00 0.00 0.00 51 1012.2
20260504223002 52 46 0.0 0.0 0.00 0.00 0.00 49 1011.8
20260504221500 53 96 0.0 3.5 0.00 0.00 0.00 44 1011.8
20260504220004 55 59 0.0 0.0 0.00 0.00 0.00 42 1011.6
20260504213000 58 128 0.0 0.0 0.00 0.00 0.00 36 1011.3
20260504211500 59 128 0.0 0.0 0.00 0.00 0.00 34 1011.4
20260504210004 59 51 0.0 0.0 0.00 0.00 0.00 33 1011.5
20260504204500 58 21 0.0 0.0 0.00 0.00 0.00 41 1011.7
20260504202959 58 175 0.0 0.9 0.00 0.00 0.00 38 1012.2
20260504201501 57 9 0.0 0.9 0.00 0.00 0.00 45 1012.5
20260504195958 55 319 0.0 5.2 0.00 0.00 0.00 47 1012.8
20260504194459 53 9 0.9 11.3 0.00 0.00 0.00 55 1013.4
20260504191458 56 146 0.0 0.0 0.00 0.00 0.00 40 1012.7
20260504190004 57 141 0.0 0.9 0.00 0.00 0.00 39 1012.7
20260504184500 52 130 0.0 0.0 0.00 0.00 0.00 48 1013.3
20260504181458 56 257 0.0 4.3 0.00 0.00 0.00 33 1012.6
20260504180002 57 348 0.0 2.6 0.00 0.00 0.00 35 1012.5
20260504174459 58 9 0.0 0.0 0.00 0.00 0.00 35 1012.5
20260504172958 57 17 0.0 0.9 0.00 0.00 0.00 33 1012.8
20260504171459 58 343 0.0 0.9 0.00 0.00 0.00 33 1013.0
20260504081459 39 360 0.0 0.0 0.00 0.00 0.00 49 1014.8